Flag for Canada

Past Weather in Sept-Îles, Quebec, Canada — Yesterday and Last 2 Weeks

Now
45 °F

Cool.


Feels Like: 45 °F
Forecast: 51 / 43 °F
Wind: No wind

Location: Sept-Îles - MADIS Station
Current Time: Sep 27, 2020 at 7:50:26 am
Latest Report: Sep 27, 2020 at 7:15 am
Visibility: N/A
Pressure29.78 "Hg
Humidity: 97%
Dew Point: 44 °F
Location of Sept-ÎlesLocation

Past Weather in Sept-Îles — Graph

°F

Sept-Îles Temperature Yesterday

Maximum temperature yesterday: 48 °F (at 4:30 pm)
Minimum temperature yesterday: 35 °F (at 4:00 am)
Average temperature yesterday: 42 °F

High & Low Weather Summary for the Past Weeks

 TemperatureHumidityPressure
High68 °F (Sep 23, 4:17 pm)98% (Sep 17, 1:15 am)30.48 "Hg (Sep 17, 1:15 am)
Low31 °F (Sep 21, 6:30 am)38% (Sep 25, 6:01 pm)29.29 "Hg (Sep 23, 4:17 pm)
Average47 °F77%29.92 "Hg
* Reported Sep 12 6:02 am — Sep 27 6:30 am, Sept-Îles. Weather by CustomWeather, © 2020

Note: Actual official high and low records may vary slightly from our data, if they occured in-between our weather recording intervals... More about our weather records

Sept-Îles Weather History for the Previous 24 Hours

Scroll right to see more
 ConditionsComfort  
Time TempWeatherWind HumidityBarometerVisibility
6:30 am
Sun, Sep 27
44 °FQuite cool.No wind96%29.78 "HgN/A
6:15 am46 °FCool.No wind97%29.78 "HgN/A
6:00 am46 °FCool.No wind97%29.78 "HgN/A
5:30 am46 °FCool.No wind97%29.79 "HgN/A
5:15 am46 °FCool.No wind97%29.79 "HgN/A
4:45 am45 °FCool.No wind96%29.79 "HgN/A
4:15 am45 °FCool.No wind96%29.80 "HgN/A
3:45 am45 °FCool.No wind96%29.80 "HgN/A
2:30 am45 °FCool.No wind96%29.79 "HgN/A
2:00 am44 °FQuite cool.No wind96%29.78 "HgN/A
1:45 am44 °FQuite cool.No wind96%29.78 "HgN/A
1:16 am44 °FQuite cool.2 mph95%29.80 "HgN/A
12:46 am44 °FQuite cool.4 mph95%29.77 "HgN/A
12:16 am44 °FQuite cool.1 mph93%29.83 "HgN/A
11:46 pm
Sat, Sep 26
45 °FCool.2 mph93%29.81 "HgN/A
11:01 pm46 °FCool.No wind93%29.80 "HgN/A
10:31 pm45 °FCool.1 mph91%29.82 "HgN/A
10:15 pm45 °FCool.No wind88%29.81 "HgN/A
8:46 pm46 °FCool.No wind84%29.81 "HgN/A
8:16 pm46 °FCool.1 mph83%29.83 "HgN/A
7:30 pm45 °FCool.2 mph84%29.84 "HgN/A
7:16 pm45 °FCool.2 mph83%29.84 "HgN/A
6:45 pm45 °FCool.4 mph81%29.82 "HgN/A
6:15 pm46 °FCool.4 mph80%29.84 "HgN/A
6:00 pm46 °FCool.4 mph79%29.84 "HgN/A
5:16 pm47 °FCool.3 mph74%29.84 "HgN/A
4:30 pm48 °FCool.5 mph74%29.86 "HgN/A
3:00 pm47 °FCool.2 mph83%29.89 "HgN/A
2:15 pm46 °FCool.4 mph84%29.90 "HgN/A
1:32 pm46 °FCool.6 mph85%29.91 "HgN/A
1:16 pm46 °FCool.4 mph87%29.91 "HgN/A
1:01 pm46 °FCool.4 mph88%29.93 "HgN/A
12:46 pm45 °FCool.3 mph89%29.94 "HgN/A
12:15 pm44 °FQuite cool.2 mph87%29.95 "HgN/A
12:01 pm44 °FQuite cool.4 mph84%29.94 "HgN/A
11:15 am43 °FQuite cool.4 mph77%29.96 "HgN/A
10:00 am42 °FQuite cool.2 mph80%29.98 "HgN/A
9:00 am43 °FQuite cool.No wind79%29.99 "HgN/A
8:30 am42 °FQuite cool.No wind78%29.99 "HgN/A
7:45 am39 °FChilly.No wind79%30.01 "HgN/A
7:15 am38 °FChilly.No wind82%29.99 "HgN/A
7:00 am37 °FChilly.No wind82%30.00 "HgN/A
Weather by CustomWeather, © 2020

See weather overview